APRIZESAT 5

Last updated on Tue Sep 22 2026 00:03:51 GMT+0000 (Coordinated Universal Time)

1 37792U 11044E 26264.54459757 .00000638 00000+0 87459-4 0 9997 2 37792 98.2485 200.3348 0053192 53.2435 307.3643 14.81217410813050
UTC large
Height (km)
Speed (km/s)
/
Latitude / Longitude
Inclination (degrees)
Orbital Period (minutes)
Azimuth
Elevation
Range (km)
Doppler Factor

Next 0 passes for location: London (51.5072 / 0.1276)

No passes found over London.
APRIZESAT 5